TimeCST,TemperatureF,Dew PointF,Humidity,Sea Level PressureIn,VisibilityMPH,Wind Direction,Wind SpeedMPH,Gust SpeedMPH,PrecipitationIn,Events,Conditions,WindDirDegrees,DateUTC
12:56 AM,52.0,46.9,83,29.88,9.0,North,8.1,-,N/A,,Overcast,350,2012-12-11 06:56:00
1:56 AM,51.1,45.0,80,29.90,6.0,NNW,8.1,-,N/A,,Haze,340,2012-12-11 07:56:00
2:40 AM,48.2,42.8,82,29.93,9.0,North,10.4,17.3,N/A,,Overcast,360,2012-12-11 08:40:00
2:56 AM,48.9,43.0,80,29.89,9.0,North,9.2,17.3,N/A,,Overcast,350,2012-12-11 08:56:00
3:38 AM,48.2,42.8,82,29.93,8.0,North,8.1,-,N/A,,Overcast,350,2012-12-11 09:38:00
3:56 AM,48.9,42.1,77,29.90,8.0,North,6.9,-,N/A,,Overcast,360,2012-12-11 09:56:00
4:56 AM,48.0,41.0,77,29.92,8.0,NNW,6.9,-,N/A,,Overcast,330,2012-12-11 10:56:00
5:35 AM,46.4,39.2,76,29.97,8.0,North,9.2,-,N/A,,Overcast,350,2012-12-11 11:35:00
5:56 AM,46.9,39.0,74,29.95,9.0,North,12.7,-,N/A,,Overcast,350,2012-12-11 11:56:00
6:56 AM,46.0,37.9,73,29.96,9.0,North,11.5,-,N/A,,Overcast,360,2012-12-11 12:56:00
7:56 AM,46.0,37.9,73,30.01,8.0,North,6.9,-,N/A,,Overcast,350,2012-12-11 13:56:00
8:56 AM,46.9,37.9,71,30.03,10.0,NNE,6.9,-,N/A,,Overcast,20,2012-12-11 14:56:00
9:56 AM,48.0,37.9,68,30.03,9.0,NNW,10.4,-,N/A,,Overcast,330,2012-12-11 15:56:00
10:56 AM,48.0,37.9,68,30.04,10.0,North,11.5,-,N/A,,Overcast,10,2012-12-11 16:56:00
11:56 AM,48.9,37.9,66,30.01,10.0,North,5.8,-,N/A,,Overcast,350,2012-12-11 17:56:00
12:56 PM,48.9,37.0,64,30.00,9.0,North,10.4,-,N/A,,Overcast,360,2012-12-11 18:56:00
1:56 PM,48.9,37.0,64,30.00,9.0,North,11.5,-,N/A,,Overcast,360,2012-12-11 19:56:00
2:56 PM,48.0,36.0,63,30.01,10.0,North,10.4,-,N/A,,Overcast,360,2012-12-11 20:56:00
3:56 PM,46.9,35.1,63,30.02,10.0,North,9.2,-,N/A,,Overcast,10,2012-12-11 21:56:00
4:56 PM,46.9,36.0,66,30.03,10.0,NNE,8.1,-,N/A,,Overcast,20,2012-12-11 22:56:00
5:56 PM,46.0,36.0,68,30.06,10.0,NNW,10.4,-,N/A,,Overcast,340,2012-12-11 23:56:00
6:56 PM,46.0,36.0,68,30.08,10.0,NNW,6.9,-,N/A,,Overcast,340,2012-12-12 00:56:00
7:56 PM,46.0,36.0,68,30.11,10.0,North,9.2,-,N/A,,Overcast,360,2012-12-12 01:56:00
8:22 PM,44.6,35.6,71,30.13,8.0,NNE,4.6,-,0.00,Rain,Light Rain,30,2012-12-12 02:22:00
8:56 PM,44.1,37.0,76,30.11,7.0,Variable,3.5,-,0.00,Rain,Light Rain,0,2012-12-12 02:56:00
9:56 PM,44.1,39.9,85,30.12,7.0,North,4.6,-,0.00,Rain,Light Rain,10,2012-12-12 03:56:00
10:56 PM,44.1,39.0,82,30.12,7.0,NNE,6.9,-,0.00,Rain,Light Rain,20,2012-12-12 04:56:00
11:56 PM,43.0,39.9,89,30.10,7.0,North,4.6,-,0.00,,Clear,360,2012-12-12 05:56:00